Location: Newark
(30.2328°N, 54.2869°E)
Time: 10:26:01
(UTC+00:00)

Hubble Space Telescope - Pass Details

Date: 29 July 2019
Orbit: 536 x 540 km, 28.5° (Epoch: 21 August)

Event Time Altitude Azimuth Distance (km) Brightness Sun altitude
Exits shadow 00:24:40 27° 222° (SW) 1,049 1.7 -15.1°
Maximum altitude 00:26:28 44° 166° (SSE) 740 1.3 -14.8°
Drops below altitude 10° 00:30:25 10° 94° (E) 1,785 4.3 -14.1°
Sets 00:32:45 0° 88° (E) 2,676 5.5 -13.6°
